Back to catalog

STARLINK-5483

AliveCommunicationsVLEO
NORAD 55643·PAYLOAD·🇺🇸 United States

Launched Feb 17, 2023 from Vandenberg Space Force Base

Loading…

Next Passes (next 24 hours)

TLE

FreshSource: CelesTrak SupGP

Epoch: Sep 15, 2026, 01:53 UTC

1 55643C 23021R   26258.07895833 -.00053666  00000+0 -44982-2 0  2581
2 55643  70.0006  67.1181 0002889 270.1754 154.8134 14.98351090    12

Track STARLINK-5483 in real time with AllMySat

Download on the App Store